Regional Weather Roundup
Issued by NWS

Home | Current Version | Previous Version | Text Only | Print | Product List | Glossary On
Versions: 1 2 3 4 5 6 7 8 9 10 11 12 13 14 15 16 17 18 19 20 21 22 23 24 25 26 27 28 29 30 31 32 33 34 35 36 37 38 39 40 41 42 43 44 45 46 47 48 49 50
000
ASUS45 KREV 250710
RWRNV
NEVADA REGIONAL WEATHER ROUNDUP
NATIONAL WEATHER SERVICE RENO NV
1200 AM PDT SAT MAY 25 2019

NOTE: "FAIR" INDICATES FEW OR NO CLOUDS BELOW 12,000 FEET WITH NO
SIGNIFICANT WEATHER AND/OR OBSTRUCTIONS TO VISIBILITY.

NVZ001-003-004-250800-
WESTERN NEVADA

CITY           SKY/WX    TMP DP  RH WIND       PRES   REMARKS
RENO           MOCLDY    55  38  52 N8        29.93S
CARSON CITY    FAIR      48  39  71 E5        29.93F
MINDEN         FAIR      50  37  62 W13G18    29.96S
SLIDE MTN        N/A     32  32 100 W22         N/A
PYRAMID LAKE     N/A     55 N/A N/A SW6         N/A
FALLON         MOCLDY    50  48  93 SE12      29.89F
LOVELOCK       PTCLDY    53  41  63 SW15      29.87F
HAWTHORNE      CLOUDY    55  46  71 W7        29.93F
$$

NVZ002-CAZ072-073-250800-
NORTHERN AND CENTRAL SIERRA

CITY           SKY/WX    TMP DP  RH WIND       PRES   REMARKS
S. LAKE TAHOE  PTCLDY    42  39  89 S3        30.00F
TRUCKEE        CLOUDY    37  36  93 CALM      30.02R THUNDER
SQUAW VLY 8000   N/A     36  36 100 W8          N/A
BLUE CANYON    CLOUDY    43  37  79 NE10G17   30.00F THUNDER
MAMMOTH LAKES  CLOUDY    42  35  74 NW12G17   30.02F
BRIDGEPORT     FAIR      61  30  31 SW8       29.97F
$$

NVZ030-031-036-250800-
NORTHERN NEVADA

CITY           SKY/WX    TMP DP  RH WIND       PRES   REMARKS
ELKO           LGT RAIN  48  42  80 NE6       29.92F
WINNEMUCCA     CLOUDY    48  43  82 N15       29.90R
WENDOVER       CLOUDY    51  47  86 CALM      29.91F
$$

NVZ035-037-250800-
CENTRAL NEVADA

CITY           SKY/WX    TMP DP  RH WIND       PRES   REMARKS
ELY            MOCLDY    43  38  82 SW10      29.97F
EUREKA           N/A     46  39  76 S10       29.92F
$$

NVZ013-014-250800-
SOUTH CENTRAL NEVADA

CITY           SKY/WX    TMP DP  RH WIND       PRES   REMARKS
TONOPAH        MOCLDY    50  41  71 S3        29.93F
$$

NVZ017-020-022-250800-
SOUTHERN NEVADA

CITY           SKY/WX    TMP DP  RH WIND       PRES   REMARKS
LAS VEGAS      PTCLDY    68  41  37 SW6       29.83F
N. LAS VEGAS   CLEAR     66  41  40 NW3       29.84F
NELLIS AFB     CLEAR     66  40  39 N2        29.85S
HENDERSON      CLEAR     63  42  46 SW9       29.88F
MERCURY        CLEAR     59  41  51 SE5       29.88F
$$



USA.gov is the U.S. government's official web portal to all federal, state and local government web resources and services.